Wind_Speed
35 36 36 37 37 37 37 38 38 38 39 41 41 41 41 42 42 42 42 43 43 42 42 43 42 43 44 44 45 45 46 46 46 45 44 44 44 44 45 45 45 46 47
34 34 35 35 36 35 35 35 36 36 37 38 39 40 41 41 41 41 41 42 41 41 41 41 42 42 42 42 44 44 44 45 45 43 42 42 42 43 44 45 44 45 45
32 33 33 34 34 33 32 32 34 35 36 36 37 38 39 40 41 41 41 41 40 40 39 40 40 40 41 41 42 43 43 44 43 41 40 40 40 42 43 44 44 42 41
30 31 32 32 32 33 33 33 33 33 34 35 36 38 38 38 39 40 41 41 40 40 40 39 40 40 40 40 40 41 41 42 42 41 41 40 39 39 40 41 41 41 40
29 30 31 31 31 32 32 32 33 33 34 35 36 37 37 37 37 39 40 40 39 40 40 40 40 39 39 39 39 39 40 40 40 40 40 39 38 37 38 38 39 39 38
29 29 29 29 30 30 31 32 33 33 33 34 35 35 35 35 36 36 37 38 38 38 39 39 40 39 38 38 38 38 38 38 38 38 38 37 36 36 36 36 36 36 36
29 29 29 30 30 31 32 32 32 33 33 33 33 34 34 34 34 35 36 37 37 37 37 37 38 37 36 36 35 35 34 34 34 35 35 35 35 35 34 33 33 33 34
29 30 30 30 30 31 31 31 31 32 32 32 32 32 32 32 33 33 34 34 34 34 35 35 35 33 32 33 32 31 31 31 32 33 33 33 34 34 33 33 32 32 32
29 29 29 30 31 31 30 30 30 30 30 29 30 31 31 32 32 32 32 32 31 31 32 32 32 32 32 31 30 30 30 31 31 31 32 32 32 33 33 33 31 30 29
28 29 29 29 30 30 30 30 30 30 29 29 30 31 31 32 32 32 31 30 29 29 29 30 30 30 30 30 30 29 29 28 28 29 30 30 30 30 31 30 29 28 28
27 28 28 28 29 29 29 29 29 29 28 28 28 29 29 30 30 29 28 27 27 27 27 27 28 28 28 27 27 27 27 27 27 27 27 28 27 27 26 26 26 26 26
26 27 26 26 27 27 28 27 27 27 27 27 27 27 26 26 25 25 25 25 24 24 23 23 23 25 25 25 25 25 25 25 25 25 24 24 24 24 24 23 23 24 23
26 26 26 26 26 25 26 25 25 25 25 24 25 25 24 23 23 23 22 21 20 20 20 20 21 22 22 23 23 23 23 23 22 22 22 22 22 22 21 22 22 22 22
25 25 24 24 24 24 23 23 23 22 22 22 22 21 21 20 19 19 19 19 19 19 19 19 20 20 21 22 22 22 21 20 19 19 20 20 20 20 21 21 21 21 20
23 23 22 22 22 22 21 21 20 20 19 19 19 17 17 17 18 17 17 17 17 17 18 19 19 20 20 21 20 20 19 19 19 18 18 18 19 19 19 20 19 19 18
22 21 20 20 19 19 18 17 17 17 16 16 15 15 15 16 16 16 16 16 16 16 17 17 18 19 19 19 19 18 18 17 17 16 16 16 17 17 17 17 17 16 16
20 19 18 17 16 15 15 15 15 14 14 13 13 13 13 13 14 15 15 15 15 15 16 16 16 16 16 15 15 15 15 15 15 15 14 14 14 14 15 15 15 15 15
17 16 16 15 14 14 14 14 13 13 12 12 12 12 12 12 12 13 14 14 14 14 15 14 15 15 15 14 14 13 13 12 12 12 12 12 12 12 12 12 13 13 13
15 14 14 14 14 14 13 13 12 11 10 10 10 11 10 10 11 11 12 12 12 12 13 13 13 13 12 12 11 10 9 9 9 9 9 10 10 10 10 10 10 10 11
15 14 13 13 13 12 11 11 10 10 10 10 10 10 10 9 10 10 10 11 11 11 11 11 11 11 11 11 10 9 9 8 8 8 8 8 8 9 9 8 8 8 9
14 13 12 12 11 11 10 10 10 9 9 9 9 9 9 9 9 9 8 9 9 9 10 10 11 11 11 10 9 9 8 8 7 8 8 8 8 8 7 7 7 7 7
12 11 11 11 11 10 10 10 10 9 9 8 8 8 8 9 9 9 8 8 8 9 9 9 9 9 9 9 9 8 8 8 8 8 8 8 8 7 7 7 6 6 6
11 11 11 11 10 10 10 9 9 9 8 8 8 7 8 8 8 8 8 8 8 8 7 7 7 7 7 8 8 8 8 7 7 7 6 7 6 6 6 6 6 6 5
10 10 10 10 10 10 9 9 8 8 8 8 8 8 8 8 8 7 7 7 6 6 5 5 6 6 6 6 7 7 7 7 7 6 6 6 6 6 6 6 6 5 5
9 9 9 9 9 9 9 9 9 9 8 8 8 8 8 8 7 6 6 5 4 4 4 4 5 5 5 5 5 6 6 6 6 6 6 6 6 6 6 6 6 5 5
9 9 9 9 9 10 10 9 9 8 8 7 8 7 7 6 6 5 4 4 3 3 4 4 5 6 6 6 6 7 7 7 6 6 6 6 6 6 6 6 5 5 4
Wind_Direction
265 266 267 268 269 269 268 268 267 266 266 267 266 266 267 268 269 268 268 267 267 268 269 269 269 269 269 269 269 269 270 271 270 269 268 268 267 266 266 267 267 268 268
265 267 268 269 270 270 270 270 269 268 269 269 267 266 267 268 267 268 268 267 267 268 269 269 269 269 269 270 270 270 270 270 270 268 267 267 267 267 268 268 269 269 268
266 267 269 270 271 270 269 270 272 271 270 269 268 268 269 268 267 268 269 268 268 268 268 269 269 270 269 270 271 270 269 269 269 267 266 266 268 268 268 269 269 268 268
268 270 271 271 270 269 270 271 273 272 271 269 269 270 270 270 270 271 272 270 269 268 268 269 271 271 270 270 270 269 268 267 267 266 266 267 269 269 269 268 268 268 268
272 273 272 271 271 270 271 272 273 274 273 271 270 270 270 271 272 271 272 270 270 269 268 269 271 272 271 271 271 270 268 267 267 267 267 268 268 269 269 269 269 269 268
273 274 274 272 272 272 272 273 273 273 273 273 273 270 270 271 272 274 273 270 272 272 270 270 270 271 271 271 270 269 268 267 266 267 267 268 268 270 270 271 271 269 268
274 274 273 273 273 273 273 273 273 274 275 275 274 270 270 270 272 274 274 273 273 273 271 269 270 269 270 270 268 267 266 267 267 267 267 268 268 269 270 271 269 268 268
276 275 273 274 274 274 274 275 275 275 276 275 272 271 271 271 274 276 277 276 273 272 271 270 269 269 269 268 265 265 266 268 269 269 268 268 267 267 268 269 268 268 268
277 276 276 275 275 276 276 276 276 277 277 276 273 272 272 274 276 276 277 276 274 272 271 269 268 267 266 265 265 266 267 270 271 270 270 269 267 266 265 265 266 265 265
281 279 278 277 275 274 275 275 276 277 276 275 273 273 274 275 275 275 276 276 274 272 269 267 265 265 264 264 264 265 268 270 272 273 271 270 266 264 263 263 263 263 264
284 283 281 279 277 275 274 276 276 276 276 274 274 274 275 277 275 275 276 275 273 270 268 266 264 264 263 262 263 265 269 271 271 272 271 269 266 263 261 260 260 262 263
285 285 283 280 278 276 275 276 277 278 278 276 275 276 275 276 275 275 275 275 272 267 266 265 263 261 262 262 264 267 270 272 272 271 269 265 263 262 261 260 260 261 260
286 286 283 281 279 278 276 275 276 278 278 277 277 275 274 273 274 276 275 272 268 265 265 266 265 265 265 266 267 269 270 271 272 271 268 263 261 261 259 258 259 258 255
287 287 285 282 278 276 276 275 276 276 276 276 276 274 272 272 274 275 272 269 268 267 265 265 267 268 268 268 268 268 268 269 267 267 264 260 258 258 258 258 258 256 254
288 286 284 282 280 277 276 276 275 275 275 276 276 270 269 272 275 276 273 269 268 266 265 265 267 269 269 269 268 267 265 264 264 263 261 260 259 258 260 261 259 256 252
286 284 284 282 280 277 275 273 273 278 277 276 275 271 273 273 276 278 278 277 271 268 268 266 266 267 268 269 267 267 266 263 261 259 258 262 261 261 261 259 257 254 251
286 283 283 280 277 273 273 273 274 279 280 274 272 274 276 276 278 281 282 280 276 271 267 267 267 266 267 266 265 263 261 259 259 258 258 260 261 260 258 256 252 250 250
286 283 280 277 274 272 271 273 274 276 273 268 271 273 278 280 283 283 283 282 279 274 268 267 267 266 266 263 259 256 256 258 259 255 252 252 253 255 256 255 252 249 247
282 282 279 276 273 271 271 270 269 271 272 272 272 274 279 284 287 287 284 282 281 277 269 265 267 266 263 256 251 249 249 249 248 244 245 247 250 252 254 254 250 246 247
278 275 275 274 271 267 265 266 268 268 269 272 274 276 279 285 288 288 285 281 282 280 273 268 267 263 257 250 246 244 241 239 241 243 244 245 246 249 250 249 247 245 244
277 271 270 267 263 262 262 264 264 263 266 271 274 275 279 282 283 284 284 283 282 282 277 268 263 259 250 242 237 234 232 232 237 240 243 245 245 244 243 243 238 236 237
273 266 266 263 261 260 261 263 261 261 262 263 265 270 278 281 283 279 278 277 279 281 278 267 257 251 245 239 234 232 232 233 235 241 247 244 237 231 228 227 222 217 215
270 263 264 262 259 257 259 259 258 258 259 259 261 268 277 280 280 280 278 276 277 275 270 258 246 238 231 229 224 223 223 225 227 233 233 225 220 214 210 207 200 197 199
267 260 259 256 253 251 254 257 258 260 260 262 263 268 272 275 276 278 280 278 270 266 259 237 225 216 210 208 208 207 209 211 211 212 208 202 202 202 196 190 185 180 180
263 257 253 251 250 250 252 254 256 259 261 264 264 265 268 269 271 277 275 268 263 250 227 204 193 184 179 176 175 177 181 185 185 185 186 188 188 184 179 174 171 169 172
260 257 250 249 253 254 253 253 255 257 259 262 261 261 259 255 255 258 253 248 241 228 208 193 179 169 164 160 159 160 162 166 168 167 166 169 170 170 169 170 171 172 175
Height
5598 5598 5597 5597 5596 5595 5595 5595 5595 5595 5595 5594 5594 5593 5593 5593 5591 5590 5589 5588 5588 5587 5587 5587 5587 5586 5586 5585 5584 5583 5583 5582 5582 5584 5583 5583 5583 5583 5583 5583 5583 5583 5583
5588 5588 5587 5587 5586 5586 5585 5585 5585 5585 5584 5583 5583 5583 5583 5582 5581 5579 5578 5577 5577 5576 5576 5576 5575 5575 5574 5573 5572 5572 5571 5570 5570 5571 5572 5572 5572 5571 5571 5572 5571 5571 5570
5579 5578 5578 5577 5577 5576 5576 5576 5575 5574 5574 5573 5572 5572 5572 5571 5570 5569 5568 5567 5566 5565 5565 5565 5564 5563 5563 5562 5561 5560 5559 5559 5559 5560 5561 5561 5561 5561 5560 5560 5560 5559 5558
5570 5569 5569 5568 5567 5567 5566 5566 5565 5564 5564 5563 5562 5561 5561 5560 5559 5558 5557 5556 5555 5555 5554 5554 5553 5552 5552 5551 5550 5549 5548 5548 5549 5549 5550 5551 5550 5550 5549 5549 5548 5547 5547
5562 5561 5560 5559 5558 5558 5557 5557 5556 5555 5554 5553 5552 5551 5550 5550 5549 5547 5546 5545 5544 5543 5543 5542 5542 5541 5541 5540 5539 5538 5538 5538 5539 5539 5540 5540 5540 5540 5539 5538 5538 5537 5536
5553 5552 5551 5550 5550 5549 5549 5548 5547 5546 5544 5543 5542 5541 5540 5540 5539 5537 5535 5534 5533 5532 5531 5531 5531 5530 5530 5529 5528 5528 5528 5528 5529 5530 5530 5530 5531 5530 5529 5528 5528 5528 5528
5545 5544 5543 5542 5541 5540 5539 5538 5537 5536 5535 5533 5532 5531 5531 5530 5529 5527 5525 5524 5523 5521 5520 5520 5520 5520 5520 5519 5519 5519 5519 5519 5519 5520 5521 5521 5521 5521 5521 5520 5519 5519 5519
5536 5535 5533 5532 5531 5530 5529 5529 5528 5526 5525 5524 5523 5522 5521 5520 5519 5518 5516 5514 5512 5511 5510 5509 5509 5510 5510 5510 5510 5511 5511 5511 5511 5511 5512 5512 5512 5511 5511 5511 5510 5510 5510
5527 5525 5524 5522 5522 5521 5520 5519 5518 5517 5516 5514 5513 5512 5512 5511 5509 5508 5506 5505 5503 5501 5500 5500 5500 5501 5501 5501 5502 5503 5503 5503 5503 5503 5503 5502 5502 5502 5502 5502 5502 5501 5502
5517 5516 5514 5513 5512 5511 5510 5509 5508 5507 5506 5505 5504 5503 5502 5501 5500 5499 5497 5496 5495 5493 5492 5492 5492 5493 5493 5493 5494 5495 5495 5495 5495 5495 5494 5493 5493 5494 5494 5494 5494 5494 5495
5509 5507 5505 5503 5502 5501 5501 5500 5499 5498 5497 5496 5495 5494 5493 5492 5491 5489 5488 5487 5486 5485 5485 5485 5485 5485 5485 5485 5486 5487 5487 5487 5487 5486 5486 5485 5485 5486 5486 5486 5486 5487 5488
5500 5498 5497 5495 5494 5493 5492 5491 5490 5489 5488 5487 5486 5486 5485 5484 5483 5481 5480 5480 5479 5478 5478 5478 5478 5478 5478 5478 5479 5479 5479 5479 5479 5478 5478 5478 5478 5478 5479 5479 5480 5481 5481
5492 5490 5488 5487 5485 5484 5484 5483 5482 5481 5480 5479 5479 5478 5477 5477 5476 5475 5474 5473 5472 5472 5472 5472 5472 5472 5472 5472 5472 5472 5472 5472 5472 5472 5472 5472 5472 5472 5472 5473 5474 5475 5476
5485 5483 5481 5479 5478 5477 5476 5476 5475 5474 5473 5473 5472 5472 5471 5471 5470 5469 5468 5468 5467 5467 5466 5466 5466 5466 5466 5466 5466 5466 5466 5466 5466 5466 5466 5466 5466 5467 5467 5468 5469 5469 5470
5477 5475 5474 5472 5471 5470 5469 5469 5468 5468 5467 5467 5467 5466 5466 5466 5465 5464 5463 5463 5463 5462 5462 5461 5461 5461 5461 5460 5460 5460 5460 5460 5461 5461 5461 5461 5462 5462 5462 5463 5464 5464 5465
5471 5469 5467 5466 5465 5464 5463 5463 5463 5463 5462 5462 5461 5462 5461 5461 5461 5460 5459 5458 5457 5457 5457 5456 5456 5456 5456 5455 5455 5455 5455 5455 5456 5456 5456 5457 5457 5458 5458 5458 5459 5460 5460
5464 5463 5461 5460 5460 5459 5459 5459 5459 5458 5457 5457 5457 5457 5457 5457 5456 5455 5454 5453 5453 5452 5452 5451 5451 5451 5451 5450 5450 5451 5451 5451 5451 5452 5452 5453 5453 5454 5454 5455 5455 5456 5457
5458 5457 5456 5456 5455 5455 5455 5455 5455 5454 5454 5454 5454 5453 5453 5452 5452 5451 5450 5449 5449 5448 5447 5447 5447 5447 5447 5447 5447 5447 5447 5447 5448 5448 5449 5449 5450 5450 5451 5451 5452 5453 5453
5453 5452 5452 5451 5451 5451 5451 5451 5451 5451 5450 5450 5450 5450 5449 5449 5448 5447 5446 5446 5445 5444 5444 5443 5443 5443 5443 5443 5443 5444 5444 5444 5445 5445 5446 5447 5447 5448 5448 5449 5449 5450 5450
5448 5448 5447 5447 5447 5447 5447 5447 5447 5447 5447 5447 5447 5446 5446 5445 5445 5444 5443 5442 5442 5441 5440 5440 5439 5439 5440 5440 5440 5441 5441 5442 5442 5443 5444 5444 5445 5445 5446 5446 5447 5447 5447
5443 5443 5443 5443 5443 5443 5443 5443 5443 5443 5443 5443 5443 5443 5442 5442 5441 5441 5440 5439 5438 5437 5436 5436 5436 5436 5436 5437 5438 5438 5439 5440 5441 5441 5442 5442 5443 5443 5444 5444 5445 5445 5446
5439 5439 5439 5439 5439 5439 5440 5440 5440 5440 5440 5440 5440 5440 5439 5439 5438 5438 5437 5436 5436 5435 5434 5433 5433 5433 5434 5434 5435 5436 5437 5438 5439 5439 5440 5440 5441 5441 5442 5442 5443 5443 5444
5435 5435 5435 5435 5435 5436 5436 5437 5437 5437 5437 5437 5437 5437 5436 5436 5436 5435 5435 5434 5433 5432 5431 5431 5431 5431 5431 5432 5433 5434 5435 5436 5437 5438 5438 5439 5439 5440 5441 5441 5442 5443 5443
5431 5431 5432 5432 5432 5433 5433 5433 5433 5433 5433 5433 5433 5434 5433 5433 5433 5432 5432 5431 5431 5430 5430 5429 5429 5429 5430 5430 5431 5432 5433 5434 5435 5436 5437 5438 5438 5439 5440 5440 5441 5442 5442
5428 5428 5428 5429 5429 5430 5430 5430 5430 5430 5430 5430 5430 5431 5430 5430 5430 5430 5429 5429 5429 5429 5428 5428 5428 5429 5429 5430 5430 5431 5432 5433 5434 5435 5436 5437 5437 5438 5439 5440 5440 5441 5442
5425 5425 5425 5426 5426 5426 5427 5427 5427 5427 5427 5427 5427 5427 5428 5428 5428 5428 5428 5428 5428 5427 5427 5428 5428 5429 5429 5430 5431 5431 5432 5433 5433 5434 5435 5436 5437 5438 5439 5440 5440 5441 5442